This demonstration page uses our WeatherBlox Daily Observations layout. Learn more.

36.17497, -115.13722

Hourly Observations for May 4, 2018

Temp ( °F °C ) Dew Point ( °F °C ) Humidity (%) Winds ( mph kmh ) Pressure ( in mb ) Visibility ( mi km ) Precip ( " mm )
12:53 am 00:53 Clear 64 17.8 42 5.6 45 45 NNW 5 7 30.15 1021 10 16.09344 0 0
1:53 am 01:53 Clear 62 16.7 43 6.1 50 50 NNW 6 9 30.15 1021 10 16.09344 0 0
2:53 am 02:53 Clear 61 16.1 40 4.4 46 46 NNW 6 9 30.15 1021 10 16.09344 0 0
3:53 am 03:53 Clear 61 16.1 41 5 48 48 NW 5 7 30.15 1021 10 16.09344 0 0
4:53 am 04:53 Clear 61 16.1 41 5 48 48 NW 3 6 30.15 1021 10 16.09344 0 0
5:53 am 05:53 Sunny 60 15.6 41 5 50 50 WSW 6 9 30.18 1022 10 16.09344 0 0
6:53 am 06:53 Sunny 62 16.7 39 3.9 43 43 Calm 30.21 1023 10 16.09344 0 0
7:53 am 07:53 Sunny 68 20 36 2.2 31 31 W 5 7 30.24 1024 10 16.09344 0 0
8:53 am 08:53 Sunny 73 22.8 35 1.7 25 25 Calm 30.24 1024 10 16.09344 0 0
9:53 am 09:53 Sunny 76 24.4 35 1.7 23 23 SE 3 6 30.24 1024 10 16.09344 0 0
10:53 am 10:53 Sunny 78 25.6 33 0.6 19 19 SSE 6 9 30.24 1024 10 16.09344 0 0
11:53 am 11:53 Sunny 81 27.2 32 0 17 17 N 6 9 30.21 1023 10 16.09344 0 0
12:53 pm 12:53 Sunny 84 28.9 26 -3.3 12 12 ENE 6 9 30.18 1022 10 16.09344 0 0
1:53 pm 13:53 Sunny 84 28.9 26 -3.3 12 12 WSW 8 13 30.15 1021 10 16.09344 0 0
2:53 pm 14:53 Sunny 85 29.4 26 -3.3 12 12 SSE 7 11 30.12 1020 10 16.09344 0 0
3:53 pm 15:53 Sunny 85 29.4 25 -3.9 11 11 Calm 30.09 1019 10 16.09344 0 0
4:53 pm 16:53 Sunny 86 30 25 -3.9 11 11 ESE 8 13 30.06 1018 10 16.09344 0 0
5:53 pm 17:53 Sunny 85 29.4 23 -5 10 10 SE 3 6 30.06 1018 10 16.09344 0 0
6:53 pm 18:53 Sunny 85 29.4 23 -5 10 10 E 6 9 30.06 1018 10 16.09344 0 0
7:53 pm 19:53 Clear 82 27.8 25 -3.9 12 12 ESE 5 7 30.06 1018 10 16.09344 0 0
8:53 pm 20:53 Clear 81 27.2 26 -3.3 13 13 Calm 30.06 1018 10 16.09344 0 0
9:53 pm 21:53 Clear 77 25 33 0.6 20 20 WNW 7 11 30.06 1018 10 16.09344 0 0
10:53 pm 22:53 Clear 74 23.3 36 2.2 25 25 NW 7 11 30.06 1018 10 16.09344 0 0
11:53 pm 23:53 Clear 72 22.2 36 2.2 27 27 NW 7 11 30.06 1018 10 16.09344 0 0

Powered by AerisWeather